Flag for U.S.A. Weather past 2 weeks in Washington DC, District of Columbia, U.S.A.

Now
37 °F

Passing clouds.


Feels Like: 37 °F
Forecast: 29 / 39 °F
Wind: No wind

Location: Reagan National Airport

Current Time: Dec 21, 2014 at 9:27:13 PM

Latest Report: Dec 21, 2014 at 8:52 PM


Visibility: 10 mi

Pressure: 30.33 "Hg

Humidity: 60%

Dew point: 24 °F

Location of Washington DCLocation

Historic Weather in Washington DC — Graph

°F

Washington DC temperature yesterday

Maximum temperature yesterday: 39 °F (at 12:52 PM)
Minimum temperature yesterday: 31 °F (at 6:52 AM)
Average temperature yesterday: 36 °F

Past Weeks' High & Low Weather Summary

 TemperatureHumidityPressure
High58 °F (Dec 17, 12:52 PM)87% (Dec 9, 11:03 AM)30.60 "Hg (Dec 9, 11:03 AM)
Low31 °F (Dec 20, 6:52 AM)21% (Dec 11, 11:52 PM)29.81 "Hg (Dec 10, 1:52 PM)
Average42 °F57%30.12 "Hg
* Reported Dec 6 7:52 PM — Dec 21 7:52 PM, Washington DC, Weather by CustomWeather, © 2014

Note: Actual official high and low records may vary slightly from our data, if they occured in-between our weather recording intervals... More about our weather records

Advertising

Washington DC weather history for previous 24 hours

 ConditionsComfort  
Time TempWeatherWind HumidityBarometerVisibility
7:52 PM
Dec 21
38 °FPassing clouds.No wind65%30.33 "Hg10 mi
6:52 PM40 °FPassing clouds.6 mph60%30.32 "Hg10 mi
5:52 PM41 °FPassing clouds.3 mph55%30.32 "Hg10 mi
4:52 PM42 °FPassing clouds.No wind47%30.33 "Hg10 mi
3:52 PM44 °FPassing clouds.5 mph45%30.29 "Hg10 mi
2:52 PM45 °FSunny.3 mph44%30.29 "Hg10 mi
1:52 PM44 °FPartly sunny.8 mph47%30.30 "Hg10 mi
12:52 PM44 °FPartly sunny.6 mph45%30.33 "Hg10 mi
11:52 AM42 °FPartly sunny.3 mph49%30.35 "Hg10 mi
10:52 AM39 °FOvercast.3 mph53%30.37 "Hg10 mi
9:52 AM38 °FOvercast.5 mph55%30.38 "Hg10 mi
8:52 AM37 °FOvercast.6 mph60%30.36 "Hg9 mi
7:52 AM37 °FOvercast.6 mph60%30.35 "Hg10 mi
6:52 AM37 °FOvercast.3 mph57%30.34 "Hg10 mi
5:52 AM37 °FOvercast.6 mph54%30.33 "Hg10 mi
4:52 AM37 °FOvercast.3 mph60%30.31 "Hg10 mi
3:52 AM37 °FOvercast.5 mph57%30.31 "Hg10 mi
2:52 AM37 °FOvercast.No wind60%30.32 "Hg10 mi
1:52 AM37 °FOvercast.No wind62%30.31 "Hg10 mi
12:52 AM36 °FOvercast.No wind59%30.30 "Hg10 mi
11:52 PM
Dec 20
36 °FPassing clouds.5 mph52%30.31 "Hg10 mi
10:52 PM37 °FPartly cloudy.3 mph50%30.31 "Hg10 mi
9:52 PM37 °FPassing clouds.5 mph52%30.31 "Hg10 mi
Weather by CustomWeather, © 2014

See weather overviewHow to use our weather pages